Weather History for Crestview, FL

Change the Weather History Date:

Saturday, December 22, 2012

  Actual Average Record
Temperature  
Mean Temperature 43 °F -  
Max Temperature 61 °F 58 °F 77 °F (1992)
Min Temperature 25 °F 38 °F 19 °F (1976)
Degree Days  
Heating Degree Days 22    
Moisture  
Dew Point 24 °F    
Average Humidity 58    
Maximum Humidity 92    
Minimum Humidity 20    
Precipitation  
Precipitation 0.00 in - - ()
Sea Level Pressure  
Sea Level Pressure 30.33 in    
Wind  
Wind Speed 5 mph (NNW)    
Max Wind Speed 10 mph    
Max Gust Speed 17 mph    
Visibility 10 miles    
Events      
Averages and records for this station are not official NWS values.
T = Trace of Precipitation, MM = Missing Value Source: NWS Daily Summary

Daily Weather History Graph

Daily Weather History Graph

Search for Another Location

Airport:

Trip Planner

Search our weather history database for the weather conditions in past years. The results will help you decide how hot, cold, wet, or windy it might be!

Date:

Astronomy

Dec. 22, 2012 Rise Set
Actual Time 6:40 AM CST 4:49 PM CST
Civil Twilight 6:13 AM CST 5:16 PM CST
Nautical Twilight 5:43 AM CST 5:46 PM CST
Astronomical Twilight 5:14 AM CST 6:15 PM CST
Moon 12:56 PM CST (12/22) 1:37 AM CST (12/22)
Length of Visible Light 11h 02m
Length of Day
10h 09m
Waxing Gibbous, 74% of the Moon is Illuminated
Dec 22
Waxing Gibbous
Dec 28
Full
Jan 4
Last Quarter
Jan 11
New
Jan 18
First Quarter

Hourly Weather History & Observations

Time (CST) Temp. Windchill Dew Point Humidity Pressure Visibility Wind Dir Wind Speed Gust Speed Precip Events Conditions
12:53 AM 37.9 °F 32.1 °F 19.9 °F 48% 30.33 in 10.0 mi WNW 8.1 mph - N/A   Clear
1:53 AM 37.0 °F 31.6 °F 19.9 °F 50% 30.33 in 10.0 mi NW 6.9 mph - N/A   Clear
2:53 AM 34.0 °F 29.8 °F 21.0 °F 59% 30.33 in 10.0 mi WNW 4.6 mph - N/A   Clear
3:53 AM 28.9 °F - 21.0 °F 72% 30.33 in 10.0 mi Calm Calm - N/A   Clear
4:53 AM 30.9 °F 27.5 °F 21.0 °F 67% 30.34 in 10.0 mi NNW 3.5 mph - N/A   Clear
5:53 AM 28.0 °F - 19.9 °F 72% 30.36 in 10.0 mi Calm Calm - N/A   Clear
6:53 AM 25.0 °F - 21.9 °F 88% 30.38 in 10.0 mi Calm Calm - N/A   Clear
7:53 AM 36.0 °F 31.1 °F 21.9 °F 57% 30.40 in 10.0 mi NNW 5.8 mph - N/A   Clear
8:53 AM 43.0 °F 39.5 °F 21.9 °F 43% 30.42 in 10.0 mi North 5.8 mph - N/A   Clear
9:53 AM 48.0 °F - 21.9 °F 36% 30.42 in 10.0 mi NNW 9.2 mph - N/A   Clear
10:53 AM 53.1 °F - 17.1 °F 24% 30.40 in 10.0 mi North 8.1 mph - N/A   Clear
11:53 AM 55.0 °F - 17.1 °F 23% 30.35 in 10.0 mi NNW 9.2 mph - N/A   Clear
12:53 PM 57.9 °F - 17.1 °F 20% 30.32 in 10.0 mi North 8.1 mph 17.3 mph N/A   Clear
1:53 PM 60.1 °F - 19.0 °F 20% 30.30 in 10.0 mi NNW 10.4 mph - N/A   Clear
2:53 PM 61.0 °F - 19.9 °F 21% 30.29 in 10.0 mi NW 8.1 mph - N/A   Clear
3:53 PM 60.1 °F - 21.9 °F 23% 30.29 in 10.0 mi North 4.6 mph - N/A   Clear
4:53 PM 48.0 °F - 34.0 °F 58% 30.29 in 10.0 mi Calm Calm - N/A   Clear
5:53 PM 41.0 °F - 34.0 °F 76% 30.30 in 10.0 mi Calm Calm - N/A   Clear
6:53 PM 37.0 °F - 32.0 °F 82% 30.30 in 10.0 mi Calm Calm - N/A   Clear
7:53 PM 34.0 °F - 30.0 °F 85% 30.30 in 10.0 mi Calm Calm - N/A   Clear
8:53 PM 34.0 °F - 30.0 °F 85% 30.30 in 10.0 mi Calm Calm - N/A   Clear
9:53 PM 30.9 °F - 28.0 °F 89% 30.31 in 10.0 mi Calm Calm - N/A   Clear
10:53 PM 30.9 °F - 28.9 °F 92% 30.29 in 10.0 mi Calm Calm - N/A   Clear
11:53 PM 30.0 °F - 28.0 °F 92% 30.27 in 10.0 mi Calm Calm - N/A   Clear